Hourly Data Report for April 13, 2017

CLYDE RIVER A
NUNAVUT

70°29'09.000" N
68°31'01.000" W
26.50 m
2400804
71090
YCY

Download Data

Hourly Data (April 2017)
Hourly Data Report for April 13, 2017
TIME
LST
Temp Definition
°C
Dew Point Definition
°C
Rel Hum Definition
%
Precip. Amount Definition
mm

Wind Dir Definition
10's deg

Wind Spd Definition
km/h
Visibility Definition
km
Stn Press Definition
kPa
Hmdx Definition


Wind Chill Definition


Weather Definition


00:00 -13.2 -14.9 87 0.0 33 18 16.1 100.61   -21 Snow
01:00 -13.2 -14.9 88 0.0 33 22 16.1 100.64   -22 Snow
02:00 -13.1 -14.7 88 0.0 31 24 6.4 100.67   -23 Snow
03:00 -13.0 -14.7 87 0.0 32 26 16.1 100.70   -23 Snow
04:00 -13.0 -14.9 86 0.0 31 28 12.9 100.70   -23 Snow
05:00 -12.7 -14.7 85 0.0 31 30 11.3 100.72   -23 Snow
06:00 -12.5 -14.5 85 0.0 35 13 12.9 100.82   -19 Snow
07:00 -12.4 -14.4 86 0.0 7 9 6.4 100.88   -18 Snow
08:00 -12.8 -15.1 83 0.0 10 11 16.1 100.92   -19 LegendNANA
09:00 -12.3 -15.4 78 0.0 LegendMM 4 16.1 100.96   -15 LegendNANA
10:00 -12.1 -15.0 79 0.0 34 9 16.1 100.99   -17 LegendNANA
11:00 -12.0 -14.2 84 0.0 36 11 6.4 101.03   -18 Snow
12:00 -11.6 -13.6 85 0.0 6 18 16.1 101.05   -19 Snow
13:00 -11.5 -13.5 85 0.0 6 21 1.6 101.08   -20 Snow
14:00 -11.5 -13.4 86 0.0 5 17 16.1 101.13   -19 LegendNANA
15:00 -14.2 -16.1 86 0.0 2 15 16.1 101.17   -22 LegendNANA
16:00 -12.3 -14.0 87 0.0 1 17 16.1 101.19   -20 LegendNANA
17:00 -12.3 -14.1 87 0.0 1 15 4.8 101.22   -20 Snow
18:00 -12.6 -14.1 89 0.0 36 13 2.8 101.23   -19 Snow
19:00 -12.8 -14.2 89 0.0 36 18 9.7 101.26   -21 Snow
20:00 -14.0 -15.6 88 0.0 3 15 16.1 101.27   -22 Snow
21:00 -14.5 -15.8 90 0.0 2 15 16.1 101.29   -22 Snow
22:00 -13.6 -15.0 90 0.0 36 11 14.5 101.30   -20 Snow
23:00 -13.4 -14.8 89 0.0 1 13 3.6 101.30   -20 Snow

Notes on Data Quality.

Legend

  • E = Estimated
  • M = Missing
  • NA = Not Available*
  • [empty] = Indicates an unobserved value
Date modified: